[[{"header":{"parameterUnit":"m.s-1","parameterCategory":1,"la1":30.2991,"la2":30.254,"lo1":-89.0895,"lo2":-89.0444,"dy":0.0017,"dx":0.0017,"nx":28,"ny":28,"refTime":"2024-10-04T09:00:00:Z","depth":0,"parameterNumber":2,"parameterNumberName":"U-component_of_WINDS"},"data":[0,0,0,0,0,0,0,0,0,0,0,0,0,0,0,0,0,0,0,0,0,0,0,0,0,0,0,0,0,0,0,0,0,0,0,0,0,0,0,0,0,0,0,0,0,0,0,0,0,0,0,0,0,0,0,0,0,0,-5.8198,-5.8199,0,-5.8307,-5.8308,-5.8309,-5.8205,-5.8201,-5.8197,-5.8193,-5.8299,-5.8306,-5.8312,0,0,0,0,0,0,0,0,0,0,0,0,0,-5.7896,-5.7903,-5.8198,-5.8199,-5.8201,-5.8306,-5.8308,-5.8309,-5.8206,-5.8201,-5.8196,-5.8191,-5.8297,-5.8305,-5.8313,0,0,0,0,0,0,0,0,0,0,0,0,0,-5.8018,-5.7905,-5.8198,-5.8162,-5.816,-5.8306,-5.8308,-5.831,-5.8207,-5.8201,-5.8195,-5.8189,-5.8294,-5.8304,-5.8314,-5.8499,0,0,-5.8344,-5.8349,0,0,0,0,0,0,0,0,-5.8012,-5.803,-5.8166,-5.8165,-5.8163,-5.8236,-5.824,-5.8373,-5.8209,-5.8189,-5.8193,-5.8186,-5.8283,-5.8293,-5.8327,-5.8504,-5.8509,-5.8345,-5.8351,-5.8356,-5.8358,0,0,0,0,0,0,0,-5.8003,-5.8024,-5.8241,-5.8168,-5.8166,-5.8139,-5.8149,-5.8265,-5.8269,-5.819,-5.8183,-5.8198,-5.8281,-5.8318,-5.8329,-5.851,-5.8345,-5.8354,-5.836,-5.8364,-5.8845,-5.8851,0,0,0,0,0,0,-5.7999,-5.8018,-5.8237,-5.8244,-5.8071,-5.8149,-5.8161,-5.8219,-5.8268,-5.8269,-5.8203,-5.8192,-5.8304,-5.8317,-5.8332,-5.8552,-5.8356,-5.8365,-5.8371,-5.8838,-5.8846,-5.8853,0,0,0,0,0,0,-5.7993,-5.802,-5.8233,-5.8129,-5.8154,-5.8161,-5.8227,-5.8224,-5.8261,-5.8277,-5.8277,-5.824,-5.8299,-5.8318,-5.8459,-5.8554,-5.8369,-5.8378,-5.883,-5.884,-5.885,-5.8994,0,0,0,0,0,0,-5.7985,-5.8018,-5.809,-5.8132,-5.816,-5.836,-5.8233,-5.8231,-5.8279,-5.8267,-5.8312,-5.8314,-5.8296,-5.8444,-5.8469,-5.8565,-5.8386,-5.8821,-5.8835,-5.8846,-5.8981,-5.9008,-5.9031,0,0,0,0,0,-5.7975,-5.8125,-5.8094,-5.8121,-5.825,-5.8365,-5.8381,-5.836,-5.8287,-5.8359,-5.8369,-5.8312,-5.854,-5.846,-5.8486,-5.8587,-5.8815,-5.8831,-5.8846,-5.897,-5.9003,-5.9031,0,0,0,0,0,0,-5.8092,-5.813,-5.8096,-5.8265,-5.8313,-5.8348,-5.8437,-5.8395,-5.8464,-5.8449,-5.8417,-5.8428,-5.8577,-5.8596,-5.8505,-5.8769,-5.8666,-5.8687,-5.8751,-5.8783,-5.8807,-5.8799,-5.8395,0,0,0,0,0,-5.8139,-5.8231,-5.8258,-5.8404,-5.843,-5.843,-5.8479,-5.8458,-5.8506,-5.8525,-5.8546,-5.8593,-5.8675,-5.873,-5.8806,-5.8983,-5.8991,-5.9066,-5.9091,-5.9111,-5.913,-5.9224,-5.9258,-5.8903,-5.8903,-5.8903,0,0,-5.8234,-5.8265,-5.8325,-5.8428,-5.8463,-5.8558,-5.8447,-5.8552,-5.8622,-5.8541,-5.8675,-5.8692,-5.8743,-5.8903,-5.8974,-5.8923,-5.923,-5.9131,-5.9147,-5.9154,-5.9243,-5.9277,-5.9307,-5.8914,-5.8912,-5.891,0,0,-5.8455,-5.8489,-5.8615,-5.8653,-5.8708,-5.8707,-5.8737,-5.8779,-5.8788,-5.8923,-5.8864,-5.8945,-5.9088,-5.9126,-5.9165,-5.9403,-5.9353,-5.9428,-5.9559,-5.9652,-5.968,-5.9705,-5.9789,-5.982,-5.9447,-5.9447,-5.9447,0,-5.8566,-5.8708,-5.8684,-5.8794,-5.8841,-5.8774,-5.89,-5.8937,-5.9014,-5.9047,-5.8989,-5.9167,-5.9197,-5.9364,-5.9423,-5.9456,-5.9489,-5.9422,-5.9678,-5.9703,-5.9725,-5.9805,-5.9837,-5.9456,-5.9455,-5.9454,-5.9453,0,-5.8841,-5.8941,-5.9035,-5.9114,-5.9171,-5.9288,-5.9281,-5.9342,-5.9316,-5.9321,-5.9459,-5.9492,-5.9574,-5.9613,-5.9588,-5.9778,-5.9744,-5.9683,-5.9579,-5.9768,-5.9843,-5.9873,-5.9469,-5.9465,-5.9463,-5.9461,0,0,-5.9139,-5.9204,-5.9239,-5.9274,-5.933,-5.9405,-5.952,-5.9602,-5.9654,-5.971,-5.9804,-5.9927,-5.9871,-5.9914,-5.9894,-5.9975,-6.0161,-5.9904,-5.9904,-5.995,-6.0371,-6.0416,-6.0452,-6.0129,-6.0135,-6.0139,-6.0367,0,-5.9362,-5.9563,-5.9545,-5.9734,-5.9825,-5.9764,-5.9863,-5.9907,-5.9915,-5.9992,-6.0,-6.0088,-6.0008,-6.0034,-6.0112,-6.0122,-6.0245,-6.0106,-6.0215,-6.0219,-6.0203,-6.0491,-6.0539,-6.0752,-6.0396,-6.0401,-6.0404,0,-5.9649,-5.9717,-5.9916,-5.9959,-5.9997,-6.0087,-6.0161,-6.0236,-6.0285,-6.0285,-6.0335,-6.03,-6.0413,-6.0308,-6.0463,-6.0369,-6.0412,-6.0425,-6.0432,-6.0441,-6.0323,-6.0507,-6.082,-6.0851,-6.045,-6.0447,-6.0443,0,-5.9846,-5.9987,-6.0124,-6.0155,-6.0209,-6.0274,-6.0299,-6.0342,-6.0393,-6.0458,-6.049,-6.0566,-6.0608,-6.0667,-6.0654,-6.0578,-6.0812,-6.0706,-6.0814,-6.0815,-6.0865,-6.0862,-6.1189,-6.0895,-6.0895,-6.0894,-6.0894,0,-6.0097,-6.022,-6.0213,-6.0297,-6.0434,-6.0412,-6.0547,-6.0564,-6.0604,-6.0689,-6.064,-6.0721,-6.0699,-6.0779,-6.0769,-6.0899,-6.0918,-6.092,-6.0915,-6.0924,-6.0924,-6.0951,-6.0936,-6.0903,-6.0901,-6.0899,-6.0898,0,-6.0339,-6.0339,-6.0485,-6.0525,-6.0538,-6.0637,-6.067,-6.0748,-6.0753,-6.0862,-6.0886,-6.0892,-6.0984,-6.0977,-6.1079,-6.1072,-6.1233,-6.1211,-6.1217,-6.1212,-6.1321,-6.131,-6.1675,-6.1722,-6.14,-6.1403,-6.1405,0,-6.0498,-6.0593,-6.0643,-6.0698,-6.0728,-6.0817,-6.0869,-6.0851,-6.0907,-6.0971,-6.1042,-6.1129,-6.1198,-6.1347,-6.136,-6.1438,-6.1417,-6.154,-6.1428,-6.1434,-6.1418,-6.1412,-6.1421,-6.1561,-6.1565,-6.1568,-6.157,0,-6.0781,-6.0777,-6.0855,-6.0935,-6.0999,-6.1059,-6.1114,-6.1162,-6.1149,-6.1214,-6.1308,-6.1362,-6.1468,-6.1555,-6.1629,-6.1653,-6.161,-6.1606,-6.1635,-6.1644,-6.1643,-6.1644,-6.1276,-6.1597,-6.1594,-6.1592,-6.1591,-6.159,-6.0986,-6.1067,-6.1116,-6.1205,-6.1245,-6.1298,-6.1375,-6.139,-6.1468,-6.1554,-6.1538,-6.1644,-6.169,-6.1786,-6.1818,-6.1899,-6.1854,-6.1896,-6.1907,-6.1917,-6.193,-6.1631,-6.1912,-6.1911,-6.1911,-6.191,-6.1909,0,-6.1266,-6.1295,-6.1377,-6.1457,-6.1527,-6.1482,-6.1541,-6.1602,-6.1696,-6.1744,-6.1814,-6.1922,-6.2006,-6.2026,-6.2107,-6.2168,-6.215,-6.219,-6.2184,-6.219,-6.1965,-6.1932,-6.2203,-6.2203,-6.2203,-6.2203,-6.2203,-6.2203,-6.142,-6.1554,-6.1556,-6.171,-6.1737,-6.1842,-6.1879,-6.1928,-6.1966,-6.2089,-6.216,-6.2173,-6.221,-6.2293,-6.2369,-6.2372,-6.2404,-6.2451,-6.2447,-6.2236,-6.2206,-6.2178,-6.2147,-6.2458,-6.2459,-6.2665,-6.2667,-6.2668]},{"header":{"parameterUnit":"m.s-1","parameterCategory":1,"la1":30.2991,"la2":30.254,"lo1":-89.0895,"lo2":-89.0444,"dy":0.0017,"dx":0.0017,"nx":28,"ny":28,"refTime":"2024-10-04T09:00:00:Z","depth":0,"parameterNumber":3,"parameterNumberName":"V-component_of_WINDS"},"data":[0,0,0,0,0,0,0,0,0,0,0,0,0,0,0,0,0,0,0,0,0,0,0,0,0,0,0,0,0,0,0,0,0,0,0,0,0,0,0,0,0,0,0,0,0,0,0,0,0,0,0,0,0,0,0,0,0,0,-1.5035,-1.5035,0,-1.5033,-1.5033,-1.5033,-1.4985,-1.4984,-1.4982,-1.4981,-1.4982,-1.4983,-1.4984,0,0,0,0,0,0,0,0,0,0,0,0,0,-1.5,-1.5001,-1.5035,-1.5035,-1.5035,-1.5033,-1.5033,-1.5033,-1.4985,-1.4984,-1.4982,-1.4981,-1.4982,-1.4983,-1.4985,0,0,0,0,0,0,0,0,0,0,0,0,0,-1.5008,-1.5001,-1.5035,-1.5011,-1.5009,-1.5033,-1.5033,-1.5033,-1.4985,-1.4984,-1.4982,-1.498,-1.4981,-1.4983,-1.4985,-1.5033,0,0,-1.499,-1.4991,0,0,0,0,0,0,0,0,-1.5008,-1.501,-1.5014,-1.5013,-1.501,-1.5007,-1.5021,-1.5033,-1.4986,-1.4994,-1.4981,-1.4979,-1.4992,-1.4993,-1.4997,-1.5033,-1.5033,-1.499,-1.4991,-1.4992,-1.4993,0,0,0,0,0,0,0,-1.5007,-1.501,-1.5034,-1.5015,-1.5012,-1.5001,-1.5,-1.5023,-1.5004,-1.4994,-1.499,-1.499,-1.4991,-1.4995,-1.4996,-1.5033,-1.499,-1.4992,-1.4993,-1.4994,-1.5108,-1.511,0,0,0,0,0,0,-1.501,-1.5009,-1.5034,-1.5034,-1.5004,-1.5003,-1.5002,-1.501,-1.5003,-1.5001,-1.4992,-1.4988,-1.4993,-1.4994,-1.4996,-1.5052,-1.4992,-1.4994,-1.4995,-1.5106,-1.5109,-1.5111,0,0,0,0,0,0,-1.5009,-1.5013,-1.5034,-1.5021,-1.5023,-1.5006,-1.5015,-1.5011,-1.5015,-1.5002,-1.4999,-1.5,-1.4992,-1.4994,-1.5024,-1.5051,-1.4995,-1.4996,-1.5104,-1.5107,-1.511,-1.5164,0,0,0,0,0,0,-1.5008,-1.5013,-1.503,-1.5022,-1.5024,-1.5062,-1.5017,-1.5012,-1.5018,-1.5013,-1.5009,-1.5006,-1.499,-1.5021,-1.5026,-1.5053,-1.4998,-1.5101,-1.5105,-1.5109,-1.516,-1.5169,-1.5176,0,0,0,0,0,-1.5007,-1.5046,-1.5031,-1.5035,-1.5045,-1.5063,-1.5065,-1.5045,-1.5021,-1.5039,-1.503,-1.5006,-1.5048,-1.5025,-1.5029,-1.5057,-1.51,-1.5104,-1.5109,-1.5156,-1.5167,-1.5176,0,0,0,0,0,0,-1.506,-1.5045,-1.5028,-1.5065,-1.5066,-1.5055,-1.5077,-1.5057,-1.5065,-1.506,-1.5036,-1.5035,-1.5069,-1.5066,-1.5041,-1.5103,-1.5069,-1.5075,-1.5104,-1.5114,-1.5122,-1.5123,-1.4999,0,0,0,0,0,-1.5076,-1.5091,-1.5077,-1.5111,-1.5112,-1.5095,-1.5102,-1.5086,-1.5086,-1.5087,-1.508,-1.5082,-1.5095,-1.5104,-1.5116,-1.5159,-1.5158,-1.5181,-1.5189,-1.5195,-1.5201,-1.5224,-1.5234,-1.5126,-1.5125,-1.5125,0,0,-1.5109,-1.5103,-1.5114,-1.5122,-1.512,-1.5137,-1.5095,-1.5115,-1.5128,-1.509,-1.5118,-1.5113,-1.5113,-1.515,-1.5166,-1.5149,-1.523,-1.5201,-1.5207,-1.5208,-1.5229,-1.524,-1.5249,-1.5129,-1.5128,-1.5128,0,0,-1.5178,-1.5175,-1.5203,-1.5202,-1.5199,-1.5187,-1.5194,-1.5186,-1.5181,-1.5209,-1.5181,-1.5195,-1.5219,-1.522,-1.5224,-1.5292,-1.5271,-1.5297,-1.534,-1.5362,-1.5371,-1.5378,-1.5403,-1.5413,-1.5302,-1.5302,-1.5302,0,-1.522,-1.5244,-1.522,-1.5241,-1.5246,-1.5211,-1.5239,-1.524,-1.5242,-1.5246,-1.5226,-1.5255,-1.5252,-1.5289,-1.5306,-1.531,-1.5317,-1.5298,-1.5371,-1.5379,-1.5385,-1.5409,-1.5418,-1.5305,-1.5305,-1.5305,-1.5304,0,-1.5295,-1.5312,-1.5335,-1.5337,-1.5343,-1.5368,-1.5349,-1.5359,-1.5343,-1.5333,-1.5361,-1.5357,-1.5367,-1.5374,-1.5359,-1.5409,-1.5398,-1.5375,-1.5341,-1.5399,-1.5421,-1.543,-1.531,-1.5309,-1.5308,-1.5307,0,0,-1.5399,-1.5386,-1.5395,-1.5395,-1.539,-1.5403,-1.5426,-1.5434,-1.5444,-1.5446,-1.5466,-1.5486,-1.5464,-1.5468,-1.5453,-1.5472,-1.5528,-1.5447,-1.5447,-1.5463,-1.5583,-1.5601,-1.5612,-1.5513,-1.5515,-1.5516,-1.5583,0,-1.5466,-1.5504,-1.5483,-1.5524,-1.554,-1.5506,-1.5527,-1.5526,-1.5518,-1.553,-1.552,-1.5535,-1.5505,-1.5508,-1.5526,-1.5517,-1.5552,-1.5512,-1.5532,-1.5533,-1.5534,-1.5623,-1.5642,-1.5705,-1.5591,-1.5593,-1.5594,0,-1.5549,-1.5554,-1.5597,-1.5588,-1.5594,-1.5612,-1.5618,-1.563,-1.5629,-1.5621,-1.5625,-1.5605,-1.5628,-1.5593,-1.5625,-1.5598,-1.5605,-1.5602,-1.5604,-1.5606,-1.5568,-1.5628,-1.5725,-1.5735,-1.5607,-1.5606,-1.5605,0,-1.5621,-1.5638,-1.5666,-1.5667,-1.5657,-1.5671,-1.5668,-1.5664,-1.5671,-1.5676,-1.568,-1.5689,-1.5694,-1.5701,-1.5684,-1.566,-1.5719,-1.5682,-1.5714,-1.5715,-1.5729,-1.5728,-1.5829,-1.5732,-1.5732,-1.5732,-1.5731,0,-1.5698,-1.5726,-1.5697,-1.5715,-1.5745,-1.572,-1.5751,-1.5745,-1.5742,-1.5758,-1.573,-1.5745,-1.5721,-1.5735,-1.5722,-1.575,-1.5753,-1.5748,-1.5744,-1.5751,-1.5752,-1.5756,-1.5751,-1.5734,-1.5733,-1.5733,-1.5733,0,-1.5784,-1.5766,-1.5794,-1.5782,-1.5779,-1.5802,-1.5792,-1.5808,-1.5797,-1.5818,-1.5821,-1.5804,-1.5819,-1.5802,-1.5815,-1.5806,-1.5846,-1.5835,-1.5846,-1.5843,-1.5876,-1.5873,-1.5984,-1.5998,-1.5891,-1.5892,-1.5893,0,-1.5834,-1.5855,-1.5845,-1.5853,-1.5851,-1.5864,-1.587,-1.5847,-1.5855,-1.5854,-1.587,-1.5882,-1.589,-1.5915,-1.5905,-1.5915,-1.5905,-1.5943,-1.5907,-1.5913,-1.5907,-1.5906,-1.5908,-1.5951,-1.5952,-1.5953,-1.5954,0,-1.5927,-1.5917,-1.5926,-1.5932,-1.5939,-1.5944,-1.5946,-1.5954,-1.593,-1.594,-1.5954,-1.596,-1.5973,-1.5986,-1.5993,-1.599,-1.5969,-1.5966,-1.5974,-1.5981,-1.5987,-1.5985,-1.5867,-1.5963,-1.5963,-1.5962,-1.5961,-1.5961,-1.5997,-1.6013,-1.6008,-1.602,-1.6018,-1.6021,-1.6035,-1.6025,-1.6036,-1.6044,-1.603,-1.6047,-1.6045,-1.6052,-1.6053,-1.6067,-1.6051,-1.6062,-1.6065,-1.6069,-1.6074,-1.5984,-1.6068,-1.6068,-1.6067,-1.6067,-1.6067,0,-1.6088,-1.6083,-1.6093,-1.6096,-1.6105,-1.6083,-1.6083,-1.6093,-1.6108,-1.6108,-1.6116,-1.6132,-1.6144,-1.6134,-1.6144,-1.6158,-1.6148,-1.6161,-1.616,-1.616,-1.6087,-1.608,-1.6169,-1.6169,-1.6169,-1.6169,-1.6169,-1.6168,-1.6137,-1.6163,-1.6153,-1.6178,-1.6173,-1.6189,-1.6192,-1.6194,-1.6194,-1.6213,-1.6222,-1.6215,-1.6211,-1.622,-1.623,-1.6227,-1.6233,-1.6249,-1.6243,-1.6175,-1.6165,-1.6156,-1.6149,-1.625,-1.6251,-1.6315,-1.6315,-1.6316]}]]